This demonstration page uses our WeatherBlox Daily Observations layout. Learn more.

Left ArrowRight Arrow

40.97296, -117.73568

Hourly Observations for August 4, 2016

Temp ( °F °C ) Dew Point ( °F °C ) Humidity (%) Winds ( mph kmh ) Pressure ( in mb ) Visibility ( mi km ) Precip ( " mm )
12:56 am 00:56 Clear 69 20.6 16 -8.9 13 13 NE 17 28 29.94 1014 10 16 0.00 0.00
1:56 am 01:56 Clear 67 19.4 18 -7.8 15 15 NE 16 26 29.93 1014 10 16 0.00 0.00
2:56 am 02:56 Clear 65 18.3 24 -4.4 21 21 NE 14 22 29.94 1014 10 16 0.00 0.00
3:56 am 03:56 Clear 63 17.2 26 -3.3 25 25 NNE 12 19 29.93 1014 10 16 0.00 0.00
4:56 am 04:56 Clear 63 17.2 26 -3.3 25 25 NE 8 13 29.94 1014 10 16 0.00 0.00
5:56 am 05:56 Sunny 61 16.1 26 -3.3 26 26 ENE 8 13 29.96 1015 10 16 0.00 0.00
6:56 am 06:56 Sunny 63 17.2 25 -3.9 24 24 ENE 10 17 29.96 1015 10 16 0.00 0.00
7:56 am 07:56 Sunny 67 19.4 26 -3.3 21 21 NE 17 28 29.98 1015 10 16 0.00 0.00
8:56 am 08:56 Sunny 71 21.7 27 -2.8 19 19 NNE 18 30 29.97 1015 10 16 0.00 0.00
9:56 am 09:56 Sunny 76 24.4 26 -3.3 16 16 NE 16 26 29.94 1014 10 16 0.00 0.00
10:56 am 10:56 Sunny 82 27.8 24 -4.4 12 12 NNE 15 24 29.93 1014 10 16 0.00 0.00
11:56 am 11:56 Sunny 86 30 21 -6.1 9 9 NNE 12 19 29.91 1013 10 16 0.00 0.00
12:56 pm 12:56 Sunny 87 30.6 19 -7.2 8 8 undefined N/A 29.88 1012 10 16 0.00 0.00
1:56 pm 13:56 Sunny 91 32.8 20 -6.7 7 7 ENE 7 11 29.86 1011 10 16 0.00 0.00
2:56 pm 14:56 Sunny 89 31.7 19 -7.2 7 7 NW 8 13 29.84 1010 10 16 0.00 0.00
3:56 pm 15:56 Sunny 91 32.8 18 -7.8 7 7 VRB 6 9 29.81 1010 10 16 0.00 0.00
4:56 pm 16:56 Sunny 92 33.3 18 -7.8 6 6 Calm 29.78 1009 10 16 0.00 0.00
5:56 pm 17:56 Sunny 90 32.2 17 -8.3 7 7 W 7 11 29.78 1008 10 16 0.00 0.00
6:56 pm 18:56 Sunny 89 31.7 20 -6.7 8 8 SW 5 7 29.77 1008 10 16 0.00 0.00
7:56 pm 19:56 Hazy 86 30 20 -6.7 9 9 NNW 6 9 29.77 1008 4 6 0.00 0.00
8:56 pm 20:56 Clear 76 24.4 27 -2.8 16 16 Calm 29.79 1009 10 16 0.00 0.00
9:56 pm 21:56 Clear 70 21.1 21 -6.1 16 16 SW 5 7 29.80 1009 10 16 0.00 0.00
10:56 pm 22:56 Clear 71 21.7 20 -6.7 14 14 N 3 6 29.78 1008 10 16 0.00 0.00
11:56 pm 23:56 Clear 62 16.7 23 -5 22 22 SE 8 13 29.78 1009 10 16 0.00 0.00

Powered by AerisWeather